SCP
0 0 0 0 0 0 0 0 0 0 0 0 0 0 0 0 0 0 0 0 0 0 0 0 0 0 0 0 0 0 0 0 -0 -0 -0 -0 -0 -0 -0 -0 -0 -0 -0 -0 -0 -0 0 -0 -0
0 0 0 0 0 0 0 0 0 0 0 0 0 0 0 0 0 0 0 -0 0 0 0 0 0 0 0 0 0 0 0 0 0 -0 -0 -0 -0 -0 -0 -0 -0 -0 -0 -0 -0 0 0 -0 -0
0 0 0 0 0 0 0 0 0 0 0 0 0 0 0 0 0 0 0 0 0 0 0 0 0 0 0 0 0 0 0 0 0 -0 -0 -0 -0 -0 -0 -0 -0 -0 -0 -0 -0 -0 -0 -0 -0
0 0 0 0 0 0 0 0 0 0 0 0 0 0 0 0 0 0 0 0 0 0 0 0 0 0 0 0 0 0 0 0 0 -0 -0 -0 -0 -0 -0 -0 -0 -0 0 0 -0 -0 -0 -0 -0
0 0 0 0 0 0 0 0 0 0 0 0 0 0 0 0 0 0 0 0 0 0 0 0 0 0 0 0 0 0 0 0 0 0 -0 -0 -0 -0 -0 -0 0 0 0 0 0 -0 -0 -0 -0
0 0 0 0 0 0 0 0 0 0 0 0 0 0 0 0 0 0 0 0 0 0 0 0 0 0 0 0 0 0 0 0 0 0 0 -0 -0 -0 -0 0 0 0 0 0 -0 -0 -0 -0 -0
0 0 0 0 0 0 0 0 0 0 0 0 0 0 0 0 0 0 0 0 0 0 0 0 0 0 0 0 0 0 0 0 0 0 0 0 0 0 0 0 0 0 -0 -0 -0 -0 -0 -0 -0
0 0 0 0 0 0 0 0 0 0 0 0 0 0 0 0 0 0 0 0 0 0 0 0 0 0 0 0 0 0 0 0 0 0 0 0 0 0 0 0 0 -0 -0 -0 -0 -0 -0 -0 -0
0 0 0 0 0 0 0 0 0 0 0 0 0 0 0 0 0 0 0 0 0 0 0 0 0 0 0 0 0 0 0 0 0 0 0 0 0 0 0 0 -0 -0 -0 -0 -0 -0 -0 -0 -0
0 0 0 0 0 0 0 0 0 0 0 0 0 0 0 0 0 0 0 0 0 0 0 0 0 0 0 0 0 0 0 0 0 0 0 0 0 0 0 0 -0 -0 -0 -0 -0 -0 -0 -0 -0
0 0 0 0 0 0 0 0 0 0 0 0 0 0 0 0 0 0 0 0 0 0 0 0 0 0 0 0 0 0 0 0 0 0 0 0 0 0 0 0 0 0 0 0 0 0 0 0 0
0 0 0 0 0 0 0 0 0 0 0 0 0 0 0 0 0 0 0 0 0 0 0 0 0 0 0 0 0 0 0 0 0 0 0 0 0 0 0 0 0 0 0 0 0 0 0 0 0
0 0 0 0 0 0 0 0 -0 0 0 0 0 0 0 0 0 0 0 0 0 0 0 0 0 0 0 0 0 0 0 0 0 0 0 0 0 0 0 0 0 0 0 0 0 0 0 0 0
0 0 0 0 0 0 0 0 0 -0 0 0 0 0 0 0 0 0 0 0 0 0 0 0 0 0 0 0 0 0 0 0 0 0 0 0 0 0 0 0 0 0 0 0 0 0 0 0 0
0 0 0 0 0 0 0 0 0 0 0 0 0 0 0 0 0 0 0 0 0 0 0 0 0 0 0 0 0 0 0 0 0 0 0 0 0 0 0 0 0 0 0 0 0 0 0 0 0
0 0 0 0 0 0 0 0 0 0 0 0 0 0 0 0 0 0 0 0 0 0 0 0 0 0 0 0 0 0 0 0 0 0 0 0 0 0 0 0 0 0 0 0 0 0 0 0 0
0 0 0 0 0 0 0 0 0 0 0 0 0 0 0 0 0 0 0 0 0 0 0 0 0 0 0 0 0 0 0 0 0 0 0 0 0 0 0 0 0 0 0 0 0 0 0 0 0
0 0 0 0 0 0 0 0 0 0 0 0 0 0 0 0 0 0 0 0 0 0 0 0 0 0 0 0 0 0 0 0 0 0 0 0 0 0 0 0 0 0 0 0 0 0 0 0 0
0 0 -0 0 0 0 0 0 0 0 0 0 0 0 0 0 0 0 0 0 0 0 0 0 0 0 0 0 0 0 0 0 0 0 0 0 0 0 0 0 0 0 0 0 0 0 0 0 0
0 0 0 -0 0 0 0 0 0 0 0 0 0 0 0 0 0 0 0 0 0 0 0 0 0 0 0 0 0 0 0 0 0 0 0 0 0 0 0 0 0 0 0 0 0 0 0 0 0
0 0 0 0 0 0 0 0 0 0 0 0 0 0 0 0 0 0 0 0 0 0 0 0 0 0 0 0 0 0 0 0 0 0 0 0 0 0 0 0 0 0 0 0 0 0 0 0 0
-0 -0 -0 0 0 -0 0 0 0 0 0 0 0 0 0 0 0 0 0 0 0 0 0 0 0 0 0 0 0 0 0 0 0 0 0 0 0 0 0 0 0 0 0 0 0 0 0 0 0
0 0 -0 0 0 0 0 0 0 0 0 0 0 0 0 0 0 0 0 0 0 0 0 0 0 0 0 0 0 0 0 0 0 0 0 0 0 0 0 0 0 0 0 0 0 0 0 0 0
0 -0 -0 0 0 0 0 0 0 0 0 0 0 0 0 0 0 0 0 0 0 0 0 0 0 0 0 0 0 0 0 0 0 0 0 0 0 0 0 0 0 0 0 0 0 0 0 0 0
0 -0 -0 0 0 0 0 0 0 0 0 0 0 0 0 0 0 0 0 0 0 -0 0 0 0 0 -0 0 0 0 0 0 0 0 0 0 0 0 0 0 0 0 0 0 0 0 0 0 0
0 -0 0 0 0 0 0 0 0 0 0 0 0 0 0 0 0 0 0 0 -0 -0 -0 -0 0 0 0 0 0 0 0 0 0 0 0 0 0 0 0 0 0 0 0 0 0 0 0 0 0
0 0 -0 -0 0 0 0 0 0 0 0 0 0 0 0 0 0 0 0 0 0 -0 -0 -0 -0 0 0 0 0 0 0 0 0 0 0 0 0 0 0 0 0 0 0 0 0 0 0 0 0
0 0 0 0 0 0 0 0 0 0 0 0 0 0 0 0 0 0 0 0 -0 0 0 0 -0 0 0 0 0 0 0 0 0 0 0 0 0 0 0 0 0 0 0 0 0 0 0 0 0
0 0 0 0 0 0 0 0 0 0 0 0 0 0 0 0 0 0 0 0 0 -0 0 0 0 0 0 0 0 0 0 0 0 0 0 0 0 0 0 0 0 0 0 0 0 0 0 0 0
0 0 0 0 0 0 0 0 0 0 0 0 0 0 0 0 0 0 0 0 0 0 0 0 0 0 0 0 0 0 0 0 0 0 0 0 0 0 0 0 0 0 0 0 0 0 0 0 0
Wind_Speed_500mb
11 8 6 3 6 8 7 13 5 8 6 5 11 11 19 7 11 8 18 43 56 66 66 57 49 41 35 43 38 37 32 27 26 24 22 18 15 13 12 13 16 15 17 19 19 18 17 15 13
12 6 8 6 8 2 11 9 14 18 8 9 15 18 6 7 6 6 37 44 59 61 65 60 52 45 39 45 40 33 29 25 24 21 18 16 15 16 15 15 16 14 16 17 17 16 14 12 11
13 8 6 7 9 18 10 12 20 11 18 19 8 6 13 7 14 25 29 47 64 60 62 60 53 48 42 40 39 33 28 23 20 16 16 17 18 18 16 15 16 15 13 14 13 12 11 9 7
9 8 4 6 17 13 18 9 10 11 13 13 6 4 8 14 14 32 40 51 64 59 59 57 54 48 43 43 38 34 27 21 16 16 18 19 18 17 17 15 14 12 11 10 9 8 7 6 5
15 5 4 9 18 10 13 27 28 11 9 9 10 8 5 17 25 29 45 57 59 58 57 55 52 49 47 46 40 35 27 20 17 17 18 18 18 16 15 14 13 11 9 7 6 5 5 5 5
9 5 4 24 18 10 14 44 22 19 29 29 11 10 8 21 25 30 45 58 56 57 57 54 51 47 49 48 43 36 28 22 19 18 17 17 20 17 16 15 12 9 6 4 3 2 2 3 4
3 5 17 11 15 33 13 21 17 21 15 21 16 16 9 32 29 35 44 55 57 55 57 56 53 51 49 46 41 35 29 24 21 19 17 15 21 18 18 16 11 7 4 2 0 1 2 3 5
4 4 9 21 19 51 7 16 17 24 15 14 30 12 12 47 41 43 47 56 57 57 57 57 56 54 51 47 42 36 29 24 21 20 17 16 17 16 14 13 9 6 3 2 1 2 4 5 7
3 8 35 46 15 13 7 10 17 15 19 26 30 14 14 51 49 51 56 61 59 62 60 59 61 59 55 49 43 37 30 25 23 22 20 20 19 16 14 12 9 7 5 3 4 5 6 7 7
12 12 38 2 8 13 42 22 8 11 13 14 24 26 19 54 58 64 71 72 70 73 68 64 64 62 58 52 46 39 33 29 25 24 23 20 20 19 17 14 11 9 6 6 8 8 8 7 7
9 30 25 29 25 29 20 28 20 6 6 21 38 50 39 62 63 67 70 71 77 72 70 68 65 61 58 54 47 40 34 31 26 24 23 22 22 20 17 13 11 9 10 10 9 9 9 9 9
11 30 24 18 41 21 18 33 12 26 31 30 40 45 57 68 69 72 73 72 74 74 69 69 64 58 56 51 46 39 35 31 27 22 24 24 22 19 17 15 15 13 12 11 11 10 10 10 11
14 23 25 38 38 33 35 30 23 26 37 44 37 41 63 71 72 72 71 70 69 69 66 65 64 61 56 52 47 42 36 32 27 25 22 23 21 18 18 14 15 14 15 13 14 13 14 14 16
13 27 21 32 33 23 16 31 22 8 26 35 33 49 67 74 75 75 72 71 68 66 64 64 62 62 59 54 48 43 37 32 31 29 25 24 21 19 18 18 16 15 16 16 18 18 19 18 20
24 27 21 26 33 22 12 22 3 41 21 27 43 55 65 73 71 73 71 70 66 60 55 59 59 61 57 53 47 43 37 34 33 30 28 25 24 21 20 20 19 17 20 21 22 22 23 23 24
18 14 14 16 27 20 36 21 3 27 33 18 28 47 60 66 65 64 66 62 61 50 49 49 48 54 56 51 45 41 38 36 33 27 28 28 25 23 23 23 22 21 24 26 28 27 27 28 28
11 13 27 14 28 12 28 24 7 29 55 20 33 31 52 57 55 56 58 56 53 50 42 45 40 41 48 45 40 35 35 35 31 29 29 29 29 27 27 26 24 25 28 29 30 31 32 30 29
10 14 14 22 17 18 28 27 8 53 56 32 20 21 28 39 43 43 47 49 46 47 44 41 39 35 39 38 37 37 39 41 37 34 32 31 31 30 31 31 30 30 31 31 31 31 30 33 28
18 18 16 20 11 21 30 22 12 43 49 48 46 16 8 9 14 30 35 37 42 46 51 46 42 37 40 42 42 42 45 45 45 40 36 34 33 32 35 34 33 32 32 31 29 31 33 33 27
11 12 17 18 16 5 19 22 18 23 14 32 34 35 18 7 4 8 25 36 35 39 46 50 47 44 39 38 37 37 38 44 45 42 42 39 33 30 32 34 33 32 35 35 35 36 37 38 35
7 12 12 8 21 14 7 7 12 11 21 37 55 51 41 33 23 14 13 24 31 38 37 44 50 49 45 44 42 41 38 41 39 38 37 32 34 32 35 36 38 36 36 38 37 37 40 42 40
12 29 17 11 5 7 7 5 8 12 21 24 46 56 52 42 22 24 20 12 17 27 37 27 29 41 44 43 45 46 44 44 41 36 29 29 30 30 32 32 34 35 36 36 37 34 32 31 34
9 26 5 11 11 7 15 5 5 7 14 17 38 42 45 14 39 23 31 30 18 8 6 21 17 30 37 37 40 43 45 46 44 40 35 38 37 34 36 39 37 37 38 36 33 32 37 34 36
11 9 3 4 4 8 13 5 5 6 9 3 26 54 47 39 36 37 17 17 20 19 17 11 4 13 5 9 13 19 19 25 33 34 34 35 41 40 41 36 37 34 35 36 37 36 37 42 37
12 8 7 10 10 6 15 8 8 10 11 7 7 15 38 41 41 33 28 28 8 16 19 22 17 20 29 31 33 24 33 40 44 52 55 49 41 43 46 43 44 43 43 44 42 42 38 30 31
8 7 5 3 5 4 13 11 5 3 4 12 14 10 19 41 39 35 33 30 27 17 8 3 11 14 14 14 21 22 30 34 36 37 37 38 39 39 40 37 36 33 30 27 27 28 27 22 23
10 9 3 8 2 5 6 3 2 7 2 9 10 11 9 19 25 33 31 25 22 21 19 13 14 11 7 10 13 16 19 19 20 22 24 28 29 28 25 21 19 17 16 17 17 16 15 11 12
8 3 5 6 5 5 6 7 6 11 10 11 19 29 33 32 30 20 12 20 21 20 20 20 18 14 11 8 5 5 5 6 7 8 11 13 11 11 11 10 9 7 8 9 10 6 7 9 13
11 7 9 8 5 5 6 4 6 8 10 12 19 31 35 39 38 36 35 30 25 22 22 20 15 11 8 9 12 13 12 7 4 8 8 6 6 6 5 5 5 5 6 8 9 9 10 13 15
2 4 2 6 3 3 5 3 5 7 13 16 19 26 33 38 38 39 39 40 40 35 28 24 20 19 19 17 12 8 7 7 9 9 6 4 6 5 2 2 4 6 7 9 9 10 10 11 11
Wind_Direction_500mb
258 280 249 221 51 57 253 250 279 270 269 223 143 153 189 173 171 209 161 169 171 172 173 174 177 177 175 168 168 170 173 171 181 192 200 210 219 217 194 159 155 114 109 105 109 111 106 98 89
254 253 208 136 118 198 263 244 244 239 228 136 138 127 150 195 177 176 157 164 174 174 176 177 177 179 180 176 175 174 178 187 191 198 203 207 196 183 165 150 145 133 117 114 110 107 103 94 80
246 239 224 155 170 215 222 226 235 287 305 223 151 176 161 201 190 168 167 169 172 175 178 180 179 180 183 177 181 183 183 191 189 196 194 186 175 162 155 151 139 134 126 113 111 106 97 86 73
224 198 193 169 216 236 204 220 223 318 346 214 241 181 194 173 183 173 172 172 173 176 179 181 181 184 180 176 182 184 185 193 191 189 181 176 164 158 159 151 145 131 124 117 105 92 82 68 46
211 212 219 234 235 241 228 225 253 284 306 267 238 228 211 182 182 181 174 174 176 175 179 182 183 183 179 179 183 187 196 205 196 185 183 177 168 168 164 157 152 144 138 125 99 73 51 37 26
209 179 206 234 233 242 237 229 223 246 270 268 226 174 191 176 178 176 176 176 176 176 178 180 180 181 180 185 189 195 203 208 198 190 187 181 185 177 174 168 162 149 148 132 106 54 5 5 358
136 142 233 238 232 245 217 199 183 214 246 240 221 156 219 178 173 180 179 180 179 180 178 179 178 177 183 186 192 200 206 206 199 195 193 184 176 182 169 172 172 167 155 154 38 339 328 333 343
233 253 245 226 218 247 194 200 235 187 247 253 203 198 207 186 176 178 180 181 184 183 180 179 177 179 182 191 197 203 204 203 201 199 201 195 186 193 189 185 189 178 182 223 274 299 311 322 339
217 251 243 237 213 230 108 202 229 220 201 187 195 223 230 188 177 176 180 184 189 186 185 184 182 183 188 192 199 200 202 204 204 205 206 205 205 212 214 216 213 215 224 251 281 293 303 320 333
213 237 246 7 259 275 262 263 249 188 171 209 213 213 219 186 183 182 184 188 191 189 187 187 186 188 192 197 197 202 204 205 210 212 210 209 210 213 216 218 214 212 227 265 273 280 292 293 302
237 247 285 302 309 332 283 274 261 213 228 209 216 211 196 185 187 190 192 196 193 191 190 190 191 193 195 198 200 204 209 210 212 213 215 213 214 217 219 221 217 229 259 263 266 271 277 283 293
275 263 264 280 283 325 320 317 243 229 246 272 249 230 194 190 194 196 198 197 197 193 196 194 196 197 199 202 204 208 213 215 215 215 216 217 218 222 225 230 236 244 257 254 260 271 277 286 293
239 273 280 273 272 295 314 300 269 272 278 262 259 235 209 199 198 198 201 199 199 199 199 202 199 203 202 205 208 208 215 222 221 221 221 224 227 230 230 236 244 254 264 266 268 274 276 280 288
289 296 291 269 268 254 323 300 302 308 316 251 231 224 210 202 200 198 201 204 203 208 207 204 205 208 208 208 212 217 219 223 227 231 232 233 231 230 237 245 254 260 271 272 273 278 281 283 286
287 269 275 254 239 237 271 284 171 3 325 251 213 210 203 202 204 206 206 205 208 211 213 210 208 212 213 215 218 224 229 232 230 234 238 235 235 239 247 254 261 271 275 278 279 281 283 285 288
296 256 263 226 214 219 158 266 239 5 358 281 232 214 202 204 208 211 211 211 216 217 216 214 215 219 218 219 224 231 234 232 228 230 233 236 242 248 254 261 268 274 275 278 279 280 282 286 288
216 273 245 288 197 164 170 243 313 21 5 302 260 227 209 205 208 214 217 217 218 223 216 219 221 222 220 223 225 229 227 227 226 233 236 240 248 254 261 267 271 273 272 271 274 275 280 285 289
238 253 244 228 196 194 171 215 320 38 15 4 309 280 233 213 212 216 222 225 224 226 224 224 226 225 222 224 225 228 231 233 235 237 241 246 252 257 265 272 276 273 272 273 277 281 281 284 289
278 283 275 296 241 172 193 190 43 46 11 13 29 317 349 315 253 228 225 226 226 226 229 229 232 233 229 228 229 233 238 240 242 244 248 252 256 264 273 276 273 273 274 280 280 281 284 285 288
343 287 279 235 167 129 139 149 73 66 354 357 38 23 18 60 220 216 216 222 222 229 230 233 236 237 239 236 238 248 255 256 253 256 256 255 263 267 268 271 275 273 275 275 278 281 285 284 280
319 353 318 89 103 50 90 41 49 33 51 346 16 23 34 41 42 64 136 196 216 217 223 232 237 239 240 242 240 244 250 253 253 251 253 256 263 263 267 268 272 272 272 273 275 276 279 283 285
348 353 348 14 62 119 317 117 47 10 54 349 1 4 27 26 61 80 96 129 189 207 223 245 251 230 236 242 245 245 249 253 256 258 261 258 263 271 274 273 272 273 274 277 279 282 283 285 288
329 326 2 46 62 97 358 84 360 58 76 28 347 344 25 13 46 52 74 78 74 97 225 243 241 239 237 245 248 249 255 260 261 257 259 254 260 268 272 277 278 275 275 277 276 282 282 281 282
297 352 300 80 102 52 354 5 14 42 68 73 3 354 4 30 52 38 25 64 46 30 356 14 289 160 241 256 299 306 292 283 278 271 267 277 278 275 278 278 273 272 275 277 277 278 275 274 278
9 2 344 13 28 42 342 35 14 358 357 12 9 16 7 25 39 53 43 56 39 357 339 331 309 307 251 264 256 251 259 259 264 263 262 259 262 274 278 275 272 273 273 273 272 271 268 268 271
358 38 79 52 14 356 9 10 43 72 105 38 7 43 13 35 35 35 39 50 65 91 76 282 272 259 281 273 268 266 256 255 259 260 264 267 265 265 266 268 271 272 274 276 274 271 267 259 256
328 51 188 113 17 52 349 282 202 168 32 47 47 47 46 312 338 29 33 38 48 58 63 54 30 7 344 276 257 250 254 253 254 256 260 260 262 265 267 266 265 273 283 288 288 275 268 273 270
82 216 43 9 70 65 360 30 29 30 40 42 34 40 58 68 64 46 21 44 37 40 52 47 34 19 8 359 324 278 246 242 254 257 250 239 236 241 242 248 262 278 290 294 288 289 285 276 277
346 18 49 114 99 140 127 324 304 54 40 42 38 52 53 54 53 54 56 59 54 50 45 43 40 37 27 21 16 5 346 315 210 196 218 236 231 224 231 244 262 276 302 307 306 301 295 288 284
232 1 21 100 275 66 97 280 36 52 69 72 51 55 56 57 53 49 46 45 45 43 38 35 32 25 18 8 5 9 359 353 333 313 288 221 212 210 210 302 322 319 321 309 304 298 293 281 286
Wind_Speed_850mb
11 8 6 3 6 8 7 13 5 8 6 5 11 11 19 7 11 8 18 43 56 66 66 57 49 41 35 43 38 37 32 27 26 24 22 18 15 13 12 13 16 15 17 19 19 18 17 15 13
12 6 8 6 8 2 11 9 14 18 8 9 15 18 6 7 6 6 37 44 59 61 65 60 52 45 39 45 40 33 29 25 24 21 18 16 15 16 15 15 16 14 16 17 17 16 14 12 11
13 8 6 7 9 18 10 12 20 11 18 19 8 6 13 7 14 25 29 47 64 60 62 60 53 48 42 40 39 33 28 23 20 16 16 17 18 18 16 15 16 15 13 14 13 12 11 9 7
9 8 4 6 17 13 18 9 10 11 13 13 6 4 8 14 14 32 40 51 64 59 59 57 54 48 43 43 38 34 27 21 16 16 18 19 18 17 17 15 14 12 11 10 9 8 7 6 5
15 5 4 9 18 10 13 27 28 11 9 9 10 8 5 17 25 29 45 57 59 58 57 55 52 49 47 46 40 35 27 20 17 17 18 18 18 16 15 14 13 11 9 7 6 5 5 5 5
9 5 4 24 18 10 14 44 22 19 29 29 11 10 8 21 25 30 45 58 56 57 57 54 51 47 49 48 43 36 28 22 19 18 17 17 20 17 16 15 12 9 6 4 3 2 2 3 4
3 5 17 11 15 33 13 21 17 21 15 21 16 16 9 32 29 35 44 55 57 55 57 56 53 51 49 46 41 35 29 24 21 19 17 15 21 18 18 16 11 7 4 2 0 1 2 3 5
4 4 9 21 19 51 7 16 17 24 15 14 30 12 12 47 41 43 47 56 57 57 57 57 56 54 51 47 42 36 29 24 21 20 17 16 17 16 14 13 9 6 3 2 1 2 4 5 7
3 8 35 46 15 13 7 10 17 15 19 26 30 14 14 51 49 51 56 61 59 62 60 59 61 59 55 49 43 37 30 25 23 22 20 20 19 16 14 12 9 7 5 3 4 5 6 7 7
12 12 38 2 8 13 42 22 8 11 13 14 24 26 19 54 58 64 71 72 70 73 68 64 64 62 58 52 46 39 33 29 25 24 23 20 20 19 17 14 11 9 6 6 8 8 8 7 7
9 30 25 29 25 29 20 28 20 6 6 21 38 50 39 62 63 67 70 71 77 72 70 68 65 61 58 54 47 40 34 31 26 24 23 22 22 20 17 13 11 9 10 10 9 9 9 9 9
11 30 24 18 41 21 18 33 12 26 31 30 40 45 57 68 69 72 73 72 74 74 69 69 64 58 56 51 46 39 35 31 27 22 24 24 22 19 17 15 15 13 12 11 11 10 10 10 11
14 23 25 38 38 33 35 30 23 26 37 44 37 41 63 71 72 72 71 70 69 69 66 65 64 61 56 52 47 42 36 32 27 25 22 23 21 18 18 14 15 14 15 13 14 13 14 14 16
13 27 21 32 33 23 16 31 22 8 26 35 33 49 67 74 75 75 72 71 68 66 64 64 62 62 59 54 48 43 37 32 31 29 25 24 21 19 18 18 16 15 16 16 18 18 19 18 20
24 27 21 26 33 22 12 22 3 41 21 27 43 55 65 73 71 73 71 70 66 60 55 59 59 61 57 53 47 43 37 34 33 30 28 25 24 21 20 20 19 17 20 21 22 22 23 23 24
18 14 14 16 27 20 36 21 3 27 33 18 28 47 60 66 65 64 66 62 61 50 49 49 48 54 56 51 45 41 38 36 33 27 28 28 25 23 23 23 22 21 24 26 28 27 27 28 28
11 13 27 14 28 12 28 24 7 29 55 20 33 31 52 57 55 56 58 56 53 50 42 45 40 41 48 45 40 35 35 35 31 29 29 29 29 27 27 26 24 25 28 29 30 31 32 30 29
10 14 14 22 17 18 28 27 8 53 56 32 20 21 28 39 43 43 47 49 46 47 44 41 39 35 39 38 37 37 39 41 37 34 32 31 31 30 31 31 30 30 31 31 31 31 30 33 28
18 18 16 20 11 21 30 22 12 43 49 48 46 16 8 9 14 30 35 37 42 46 51 46 42 37 40 42 42 42 45 45 45 40 36 34 33 32 35 34 33 32 32 31 29 31 33 33 27
11 12 17 18 16 5 19 22 18 23 14 32 34 35 18 7 4 8 25 36 35 39 46 50 47 44 39 38 37 37 38 44 45 42 42 39 33 30 32 34 33 32 35 35 35 36 37 38 35
7 12 12 8 21 14 7 7 12 11 21 37 55 51 41 33 23 14 13 24 31 38 37 44 50 49 45 44 42 41 38 41 39 38 37 32 34 32 35 36 38 36 36 38 37 37 40 42 40
12 29 17 11 5 7 7 5 8 12 21 24 46 56 52 42 22 24 20 12 17 27 37 27 29 41 44 43 45 46 44 44 41 36 29 29 30 30 32 32 34 35 36 36 37 34 32 31 34
9 26 5 11 11 7 15 5 5 7 14 17 38 42 45 14 39 23 31 30 18 8 6 21 17 30 37 37 40 43 45 46 44 40 35 38 37 34 36 39 37 37 38 36 33 32 37 34 36
11 9 3 4 4 8 13 5 5 6 9 3 26 54 47 39 36 37 17 17 20 19 17 11 4 13 5 9 13 19 19 25 33 34 34 35 41 40 41 36 37 34 35 36 37 36 37 42 37
12 8 7 10 10 6 15 8 8 10 11 7 7 15 38 41 41 33 28 28 8 16 19 22 17 20 29 31 33 24 33 40 44 52 55 49 41 43 46 43 44 43 43 44 42 42 38 30 31
8 7 5 3 5 4 13 11 5 3 4 12 14 10 19 41 39 35 33 30 27 17 8 3 11 14 14 14 21 22 30 34 36 37 37 38 39 39 40 37 36 33 30 27 27 28 27 22 23
10 9 3 8 2 5 6 3 2 7 2 9 10 11 9 19 25 33 31 25 22 21 19 13 14 11 7 10 13 16 19 19 20 22 24 28 29 28 25 21 19 17 16 17 17 16 15 11 12
8 3 5 6 5 5 6 7 6 11 10 11 19 29 33 32 30 20 12 20 21 20 20 20 18 14 11 8 5 5 5 6 7 8 11 13 11 11 11 10 9 7 8 9 10 6 7 9 13
11 7 9 8 5 5 6 4 6 8 10 12 19 31 35 39 38 36 35 30 25 22 22 20 15 11 8 9 12 13 12 7 4 8 8 6 6 6 5 5 5 5 6 8 9 9 10 13 15
2 4 2 6 3 3 5 3 5 7 13 16 19 26 33 38 38 39 39 40 40 35 28 24 20 19 19 17 12 8 7 7 9 9 6 4 6 5 2 2 4 6 7 9 9 10 10 11 11
Wind_Direction_850mb
258 280 249 221 51 57 253 250 279 270 269 223 143 153 189 173 171 209 161 169 171 172 173 174 177 177 175 168 168 170 173 171 181 192 200 210 219 217 194 159 155 114 109 105 109 111 106 98 89
254 253 208 136 118 198 263 244 244 239 228 136 138 127 150 195 177 176 157 164 174 174 176 177 177 179 180 176 175 174 178 187 191 198 203 207 196 183 165 150 145 133 117 114 110 107 103 94 80
246 239 224 155 170 215 222 226 235 287 305 223 151 176 161 201 190 168 167 169 172 175 178 180 179 180 183 177 181 183 183 191 189 196 194 186 175 162 155 151 139 134 126 113 111 106 97 86 73
224 198 193 169 216 236 204 220 223 318 346 214 241 181 194 173 183 173 172 172 173 176 179 181 181 184 180 176 182 184 185 193 191 189 181 176 164 158 159 151 145 131 124 117 105 92 82 68 46
211 212 219 234 235 241 228 225 253 284 306 267 238 228 211 182 182 181 174 174 176 175 179 182 183 183 179 179 183 187 196 205 196 185 183 177 168 168 164 157 152 144 138 125 99 73 51 37 26
209 179 206 234 233 242 237 229 223 246 270 268 226 174 191 176 178 176 176 176 176 176 178 180 180 181 180 185 189 195 203 208 198 190 187 181 185 177 174 168 162 149 148 132 106 54 5 5 358
136 142 233 238 232 245 217 199 183 214 246 240 221 156 219 178 173 180 179 180 179 180 178 179 178 177 183 186 192 200 206 206 199 195 193 184 176 182 169 172 172 167 155 154 38 339 328 333 343
233 253 245 226 218 247 194 200 235 187 247 253 203 198 207 186 176 178 180 181 184 183 180 179 177 179 182 191 197 203 204 203 201 199 201 195 186 193 189 185 189 178 182 223 274 299 311 322 339
217 251 243 237 213 230 108 202 229 220 201 187 195 223 230 188 177 176 180 184 189 186 185 184 182 183 188 192 199 200 202 204 204 205 206 205 205 212 214 216 213 215 224 251 281 293 303 320 333
213 237 246 7 259 275 262 263 249 188 171 209 213 213 219 186 183 182 184 188 191 189 187 187 186 188 192 197 197 202 204 205 210 212 210 209 210 213 216 218 214 212 227 265 273 280 292 293 302
237 247 285 302 309 332 283 274 261 213 228 209 216 211 196 185 187 190 192 196 193 191 190 190 191 193 195 198 200 204 209 210 212 213 215 213 214 217 219 221 217 229 259 263 266 271 277 283 293
275 263 264 280 283 325 320 317 243 229 246 272 249 230 194 190 194 196 198 197 197 193 196 194 196 197 199 202 204 208 213 215 215 215 216 217 218 222 225 230 236 244 257 254 260 271 277 286 293
239 273 280 273 272 295 314 300 269 272 278 262 259 235 209 199 198 198 201 199 199 199 199 202 199 203 202 205 208 208 215 222 221 221 221 224 227 230 230 236 244 254 264 266 268 274 276 280 288
289 296 291 269 268 254 323 300 302 308 316 251 231 224 210 202 200 198 201 204 203 208 207 204 205 208 208 208 212 217 219 223 227 231 232 233 231 230 237 245 254 260 271 272 273 278 281 283 286
287 269 275 254 239 237 271 284 171 3 325 251 213 210 203 202 204 206 206 205 208 211 213 210 208 212 213 215 218 224 229 232 230 234 238 235 235 239 247 254 261 271 275 278 279 281 283 285 288
296 256 263 226 214 219 158 266 239 5 358 281 232 214 202 204 208 211 211 211 216 217 216 214 215 219 218 219 224 231 234 232 228 230 233 236 242 248 254 261 268 274 275 278 279 280 282 286 288
216 273 245 288 197 164 170 243 313 21 5 302 260 227 209 205 208 214 217 217 218 223 216 219 221 222 220 223 225 229 227 227 226 233 236 240 248 254 261 267 271 273 272 271 274 275 280 285 289
238 253 244 228 196 194 171 215 320 38 15 4 309 280 233 213 212 216 222 225 224 226 224 224 226 225 222 224 225 228 231 233 235 237 241 246 252 257 265 272 276 273 272 273 277 281 281 284 289
278 283 275 296 241 172 193 190 43 46 11 13 29 317 349 315 253 228 225 226 226 226 229 229 232 233 229 228 229 233 238 240 242 244 248 252 256 264 273 276 273 273 274 280 280 281 284 285 288
343 287 279 235 167 129 139 149 73 66 354 357 38 23 18 60 220 216 216 222 222 229 230 233 236 237 239 236 238 248 255 256 253 256 256 255 263 267 268 271 275 273 275 275 278 281 285 284 280
319 353 318 89 103 50 90 41 49 33 51 346 16 23 34 41 42 64 136 196 216 217 223 232 237 239 240 242 240 244 250 253 253 251 253 256 263 263 267 268 272 272 272 273 275 276 279 283 285
348 353 348 14 62 119 317 117 47 10 54 349 1 4 27 26 61 80 96 129 189 207 223 245 251 230 236 242 245 245 249 253 256 258 261 258 263 271 274 273 272 273 274 277 279 282 283 285 288
329 326 2 46 62 97 358 84 360 58 76 28 347 344 25 13 46 52 74 78 74 97 225 243 241 239 237 245 248 249 255 260 261 257 259 254 260 268 272 277 278 275 275 277 276 282 282 281 282
297 352 300 80 102 52 354 5 14 42 68 73 3 354 4 30 52 38 25 64 46 30 356 14 289 160 241 256 299 306 292 283 278 271 267 277 278 275 278 278 273 272 275 277 277 278 275 274 278
9 2 344 13 28 42 342 35 14 358 357 12 9 16 7 25 39 53 43 56 39 357 339 331 309 307 251 264 256 251 259 259 264 263 262 259 262 274 278 275 272 273 273 273 272 271 268 268 271
358 38 79 52 14 356 9 10 43 72 105 38 7 43 13 35 35 35 39 50 65 91 76 282 272 259 281 273 268 266 256 255 259 260 264 267 265 265 266 268 271 272 274 276 274 271 267 259 256
328 51 188 113 17 52 349 282 202 168 32 47 47 47 46 312 338 29 33 38 48 58 63 54 30 7 344 276 257 250 254 253 254 256 260 260 262 265 267 266 265 273 283 288 288 275 268 273 270
82 216 43 9 70 65 360 30 29 30 40 42 34 40 58 68 64 46 21 44 37 40 52 47 34 19 8 359 324 278 246 242 254 257 250 239 236 241 242 248 262 278 290 294 288 289 285 276 277
346 18 49 114 99 140 127 324 304 54 40 42 38 52 53 54 53 54 56 59 54 50 45 43 40 37 27 21 16 5 346 315 210 196 218 236 231 224 231 244 262 276 302 307 306 301 295 288 284
232 1 21 100 275 66 97 280 36 52 69 72 51 55 56 57 53 49 46 45 45 43 38 35 32 25 18 8 5 9 359 353 333 313 288 221 212 210 210 302 322 319 321 309 304 298 293 281 286